| time (UTC) | temp F | wind direction | speed MPH | gust MPH | rain 1hr in | rain 24hr in | rain mn in | humidity % | barometer mb |
| 20260509061010 | 56 | 232 | 3.0 | 10.0 | 0.00 | 0.00 | 0.00 | 81 | 1005.5 |
| 20260509060508 | 56 | 212 | 4.0 | 10.0 | 0.00 | 0.00 | 0.00 | 81 | 1005.6 |
| 20260509060058 | 65 | 148 | 0.0 | 0.0 | 0.00 | 0.01 | 0.00 | 37 | 1011.6 |
| 20260509060025 | 56 | 212 | 3.0 | 10.0 | 0.00 | 0.00 | 0.00 | 81 | 1005.6 |
| 20260509055506 | 56 | 198 | 4.0 | 12.0 | 0.00 | 0.00 | 0.00 | 81 | 1005.7 |
| 20260509055008 | 56 | 233 | 5.0 | 12.0 | 0.00 | 0.00 | 0.00 | 81 | 1005.7 |
| 20260509054546 | 65 | 148 | 0.0 | 0.0 | 0.00 | 0.01 | 0.00 | 37 | 1011.5 |
| 20260509054528 | 57 | 216 | 2.0 | 9.0 | 0.00 | 0.00 | 0.00 | 80 | 1005.7 |
| 20260509054008 | 57 | 214 | 3.0 | 10.0 | 0.00 | 0.00 | 0.00 | 80 | 1005.7 |
| 20260509053504 | 57 | 195 | 4.0 | 10.0 | 0.00 | 0.00 | 0.00 | 80 | 1005.7 |
| 20260509053044 | 65 | 149 | 0.0 | 0.0 | 0.00 | 0.01 | 0.00 | 37 | 1011.3 |
| 20260509053022 | 57 | 219 | 4.0 | 9.0 | 0.00 | 0.00 | 0.00 | 79 | 1005.7 |
| 20260509052504 | 57 | 181 | 3.0 | 9.0 | 0.00 | 0.00 | 0.00 | 79 | 1005.8 |
| 20260509052008 | 57 | 190 | 5.0 | 9.0 | 0.00 | 0.00 | 0.00 | 78 | 1005.8 |
| 20260509051541 | 66 | 149 | 0.0 | 0.0 | 0.00 | 0.01 | 0.00 | 37 | 1011.1 |
| 20260509051523 | 58 | 200 | 2.0 | 8.0 | 0.00 | 0.00 | 0.00 | 77 | 1005.8 |
| 20260509051007 | 58 | 163 | 2.0 | 7.0 | 0.00 | 0.00 | 0.00 | 77 | 1005.6 |
| 20260509050508 | 58 | 226 | 1.0 | 8.0 | 0.00 | 0.00 | 0.00 | 76 | 1005.7 |
| 20260509050039 | 58 | 179 | 2.0 | 10.0 | 0.00 | 0.00 | 0.00 | 76 | 1005.7 |
| 20260509050034 | 67 | 149 | 0.0 | 0.0 | 0.00 | 0.01 | 0.00 | 37 | 1011.0 |
| 20260509045508 | 58 | 176 | 2.0 | 10.0 | 0.00 | 0.00 | 0.00 | 75 | 1005.7 |
| 20260509045010 | 58 | 219 | 3.0 | 8.0 | 0.00 | 0.00 | 0.00 | 74 | 1005.6 |
| 20260509044533 | 68 | 149 | 0.0 | 0.0 | 0.00 | 0.01 | 0.01 | 37 | 1010.9 |
| 20260509044527 | 58 | 186 | 3.0 | 8.0 | 0.00 | 0.00 | 0.00 | 74 | 1005.7 |
| 20260509044007 | 58 | 172 | 2.0 | 8.0 | 0.00 | 0.00 | 0.00 | 74 | 1005.7 |
| 20260509043507 | 58 | 180 | 3.0 | 11.0 | 0.00 | 0.00 | 0.00 | 73 | 1005.6 |
| 20260509043032 | 68 | 134 | 0.0 | 1.0 | 0.00 | 0.01 | 0.01 | 37 | 1011.1 |
| 20260509042508 | 59 | 198 | 2.0 | 8.0 | 0.00 | 0.00 | 0.00 | 73 | 1005.7 |
| 20260509042007 | 59 | 178 | 3.0 | 10.0 | 0.00 | 0.00 | 0.00 | 73 | 1005.7 |
| 20260509041530 | 68 | 151 | 0.0 | 1.0 | 0.00 | 0.01 | 0.01 | 38 | 1011.3 |
| 20260509041522 | 59 | 201 | 4.0 | 10.0 | 0.00 | 0.00 | 0.00 | 72 | 1005.6 |
| 20260509041009 | 59 | 196 | 3.0 | 10.0 | 0.00 | 0.00 | 0.00 | 72 | 1005.7 |
| 20260509040510 | 59 | 209 | 4.0 | 10.0 | 0.00 | 0.00 | 0.00 | 72 | 1005.7 |
| 20260509040027 | 68 | 151 | 0.0 | 1.0 | 0.00 | 0.01 | 0.01 | 38 | 1011.4 |
| 20260509040025 | 59 | 174 | 5.0 | 11.0 | 0.00 | 0.00 | 0.00 | 71 | 1005.8 |
| 20260509035511 | 59 | 180 | 5.0 | 11.0 | 0.00 | 0.00 | 0.00 | 71 | 1005.9 |
| 20260509035009 | 59 | 241 | 3.0 | 11.0 | 0.00 | 0.00 | 0.00 | 70 | 1005.9 |
| 20260509034528 | 59 | 192 | 3.0 | 11.0 | 0.00 | 0.00 | 0.00 | 70 | 1005.9 |
| 20260509034526 | 68 | 151 | 0.0 | 0.0 | 0.00 | 0.01 | 0.01 | 38 | 1011.2 |
| 20260509034007 | 59 | 211 | 3.0 | 8.0 | 0.00 | 0.00 | 0.00 | 70 | 1005.9 |
| 20260509033507 | 59 | 201 | 3.0 | 8.0 | 0.00 | 0.00 | 0.00 | 70 | 1005.9 |
| 20260509033027 | 59 | 181 | 2.0 | 8.0 | 0.00 | 0.00 | 0.00 | 70 | 1005.9 |
| 20260509033023 | 68 | 151 | 0.0 | 0.0 | 0.00 | 0.01 | 0.01 | 39 | 1011.2 |
| 20260509032513 | 59 | 222 | 4.0 | 8.0 | 0.00 | 0.00 | 0.00 | 70 | 1005.9 |
| 20260509032013 | 59 | 145 | 3.0 | 7.0 | 0.00 | 0.00 | 0.00 | 71 | 1005.9 |
| 20260509031523 | 58 | 198 | 3.0 | 7.0 | 0.00 | 0.00 | 0.00 | 71 | 1005.9 |
| 20260509031521 | 68 | 151 | 0.0 | 0.0 | 0.00 | 0.01 | 0.01 | 39 | 1010.9 |
| 20260509031007 | 58 | 213 | 2.0 | 7.0 | 0.00 | 0.00 | 0.00 | 71 | 1005.9 |
| 20260509030508 | 58 | 175 | 3.0 | 7.0 | 0.00 | 0.00 | 0.00 | 71 | 1005.9 |
| 20260509030032 | 57 | 182 | 0.0 | 2.0 | 0.00 | 0.00 | 0.00 | 71 | 1005.9 |
| 20260509030022 | 67 | 151 | 0.0 | 0.0 | 0.00 | 0.01 | 0.01 | 40 | 1010.6 |
| 20260509030012 | 57 | 171 | 0.0 | 2.0 | 0.00 | 0.00 | 0.00 | 71 | 1005.9 |
| 20260509025503 | 58 | 167 | 0.0 | 1.0 | 0.00 | 0.00 | 0.00 | 72 | 1006.0 |
| 20260509025003 | 58 | 146 | 0.0 | 1.0 | 0.00 | 0.00 | 0.00 | 72 | 1005.9 |
| 20260509024518 | 68 | 151 | 0.0 | 0.0 | 0.00 | 0.01 | 0.01 | 40 | 1010.4 |
| 20260509024509 | 58 | 156 | 0.0 | 1.0 | 0.00 | 0.00 | 0.00 | 71 | 1005.9 |
| 20260509024003 | 58 | 111 | 0.0 | 1.0 | 0.00 | 0.00 | 0.00 | 70 | 1006.0 |
| 20260509023506 | 58 | 108 | 0.0 | 0.0 | 0.00 | 0.00 | 0.00 | 71 | 1006.0 |
| 20260509023114 | 67 | 151 | 0.0 | 0.0 | 0.00 | 0.01 | 0.01 | 39 | 1010.3 |
| 20260509023016 | 59 | 108 | 0.0 | 0.0 | 0.00 | 0.00 | 0.00 | 70 | 1006.0 |
| 20260509022503 | 59 | 108 | 0.0 | 1.0 | 0.00 | 0.00 | 0.00 | 70 | 1006.0 |
| 20260509022003 | 59 | 108 | 0.0 | 1.0 | 0.00 | 0.00 | 0.00 | 69 | 1006.0 |
| 20260509021514 | 59 | 108 | 0.0 | 0.0 | 0.00 | 0.00 | 0.00 | 68 | 1006.0 |
| 20260509021005 | 59 | 108 | 0.0 | 1.0 | 0.00 | 0.00 | 0.00 | 68 | 1006.0 |
| 20260509020508 | 59 | 108 | 0.0 | 1.0 | 0.00 | 0.00 | 0.00 | 68 | 1006.0 |
| 20260509020022 | 59 | 108 | 0.0 | 0.0 | 0.00 | 0.00 | 0.00 | 68 | 1006.0 |
| 20260509020020 | 70 | 151 | 0.0 | 0.0 | 0.00 | 0.01 | 0.01 | 36 | 1010.0 |
| 20260509015507 | 60 | 108 | 0.0 | 0.0 | 0.00 | 0.00 | 0.00 | 68 | 1006.0 |
| 20260509015007 | 60 | 108 | 0.0 | 1.0 | 0.00 | 0.00 | 0.00 | 68 | 1006.0 |
| 20260509014527 | 71 | 151 | 0.0 | 0.0 | 0.00 | 0.01 | 0.01 | 35 | 1009.7 |
| 20260509014505 | 60 | 108 | 0.0 | 1.0 | 0.00 | 0.00 | 0.00 | 66 | 1006.0 |
| 20260509014003 | 61 | 108 | 0.0 | 1.0 | 0.00 | 0.00 | 0.00 | 66 | 1005.9 |
| 20260509013503 | 61 | 108 | 0.0 | 1.0 | 0.00 | 0.00 | 0.00 | 65 | 1005.9 |
| 20260509013008 | 61 | 108 | 0.0 | 1.0 | 0.00 | 0.00 | 0.00 | 65 | 1005.9 |
| 20260509012505 | 61 | 108 | 0.0 | 1.0 | 0.00 | 0.00 | 0.00 | 64 | 1005.9 |
| 20260509012003 | 61 | 108 | 0.0 | 1.0 | 0.00 | 0.00 | 0.00 | 64 | 1005.9 |
| 20260509011512 | 61 | 111 | 0.0 | 1.0 | 0.00 | 0.00 | 0.00 | 64 | 1005.9 |
| 20260509011506 | 73 | 133 | 1.0 | 6.0 | 0.00 | 0.01 | 0.01 | 33 | 1009.2 |
| 20260509011005 | 61 | 111 | 0.0 | 1.0 | 0.00 | 0.00 | 0.00 | 63 | 1005.8 |
| 20260509010503 | 62 | 138 | 0.0 | 1.0 | 0.00 | 0.00 | 0.00 | 63 | 1005.8 |
| 20260509010018 | 62 | 91 | 0.0 | 1.0 | 0.00 | 0.00 | 0.00 | 62 | 1005.8 |
| 20260509010003 | 74 | 158 | 1.0 | 4.0 | 0.00 | 0.01 | 0.01 | 30 | 1009.2 |
| 20260509005504 | 62 | 115 | 0.0 | 1.0 | 0.00 | 0.00 | 0.00 | 61 | 1005.9 |
| 20260509005006 | 63 | 103 | 0.0 | 2.0 | 0.00 | 0.00 | 0.00 | 60 | 1005.8 |
| 20260509004608 | 74 | 161 | 0.0 | 2.0 | 0.00 | 0.01 | 0.01 | 30 | 1009.2 |
| 20260509004534 | 63 | 101 | 0.0 | 2.0 | 0.00 | 0.00 | 0.00 | 60 | 1005.8 |
| 20260509004007 | 64 | 93 | 0.0 | 2.0 | 0.00 | 0.00 | 0.00 | 58 | 1005.8 |
| 20260509003503 | 64 | 86 | 0.0 | 2.0 | 0.00 | 0.00 | 0.00 | 58 | 1005.8 |
| 20260509003059 | 74 | 184 | 0.0 | 3.0 | 0.00 | 0.01 | 0.01 | 29 | 1009.1 |
| 20260509003008 | 64 | 183 | 0.0 | 2.0 | 0.00 | 0.00 | 0.00 | 58 | 1005.9 |
| 20260509002503 | 64 | 169 | 0.0 | 3.0 | 0.00 | 0.00 | 0.00 | 59 | 1005.8 |
| 20260509002005 | 64 | 97 | 1.0 | 3.0 | 0.00 | 0.00 | 0.00 | 59 | 1005.8 |
| 20260509001556 | 75 | 134 | 0.0 | 4.0 | 0.00 | 0.01 | 0.01 | 27 | 1009.0 |
| 20260509001511 | 64 | 83 | 0.0 | 2.0 | 0.00 | 0.00 | 0.00 | 58 | 1005.9 |
| 20260509001003 | 64 | 99 | 0.0 | 2.0 | 0.00 | 0.00 | 0.00 | 58 | 1005.9 |
| 20260509000503 | 64 | 160 | 0.0 | 2.0 | 0.00 | 0.00 | 0.00 | 59 | 1005.9 |
| 20260509000052 | 76 | 160 | 1.0 | 5.0 | 0.00 | 0.01 | 0.01 | 27 | 1009.1 |
| 20260509000029 | 64 | 153 | 0.0 | 3.0 | 0.00 | 0.00 | 0.00 | 58 | 1005.9 |
| 20260508235507 | 64 | 94 | 0.0 | 3.0 | 0.00 | 0.00 | 0.00 | 58 | 1005.9 |
| 20260508235007 | 64 | 104 | 0.0 | 2.0 | 0.00 | 0.00 | 0.00 | 58 | 1005.8 |
| 20260508234553 | 76 | 153 | 0.0 | 4.0 | 0.00 | 0.01 | 0.01 | 26 | 1009.3 |
| 20260508234519 | 64 | 112 | 0.0 | 2.0 | 0.00 | 0.00 | 0.00 | 58 | 1006.0 |
| 20260508234006 | 65 | 217 | 0.0 | 3.0 | 0.00 | 0.00 | 0.00 | 58 | 1006.0 |
| 20260508233509 | 65 | 65 | 0.0 | 4.0 | 0.00 | 0.00 | 0.00 | 58 | 1005.9 |
| 20260508233051 | 76 | 159 | 0.0 | 5.0 | 0.00 | 0.01 | 0.01 | 27 | 1009.2 |
| 20260508233024 | 65 | 92 | 1.0 | 6.0 | 0.00 | 0.00 | 0.00 | 57 | 1006.0 |
| 20260508232507 | 66 | 86 | 0.0 | 6.0 | 0.00 | 0.00 | 0.00 | 57 | 1006.1 |
| 20260508232003 | 67 | 86 | 1.0 | 3.0 | 0.00 | 0.00 | 0.00 | 55 | 1006.0 |
| 20260508231546 | 75 | 186 | 1.0 | 11.0 | 0.00 | 0.01 | 0.01 | 26 | 1009.4 |
| 20260508231510 | 67 | 183 | 0.0 | 2.0 | 0.00 | 0.00 | 0.00 | 55 | 1006.0 |
| 20260508231005 | 67 | 95 | 0.0 | 4.0 | 0.00 | 0.00 | 0.00 | 54 | 1006.1 |
| 20260508230503 | 67 | 92 | 0.0 | 4.0 | 0.00 | 0.00 | 0.00 | 52 | 1006.2 |
| 20260508230042 | 76 | 122 | 1.0 | 11.0 | 0.00 | 0.01 | 0.01 | 23 | 1009.5 |
| 20260508230014 | 68 | 342 | 0.0 | 3.0 | 0.00 | 0.00 | 0.00 | 53 | 1006.2 |
| 20260508225504 | 68 | 309 | 0.0 | 4.0 | 0.00 | 0.00 | 0.00 | 52 | 1006.2 |
| 20260508225008 | 68 | 37 | 1.0 | 4.0 | 0.00 | 0.00 | 0.00 | 53 | 1006.2 |
| 20260508224539 | 78 | 139 | 2.0 | 12.0 | 0.00 | 0.01 | 0.01 | 21 | 1009.3 |
| 20260508224524 | 69 | 248 | 1.0 | 4.0 | 0.00 | 0.00 | 0.00 | 53 | 1006.2 |
| 20260508224007 | 69 | 76 | 0.0 | 5.0 | 0.00 | 0.00 | 0.00 | 51 | 1006.2 |
| 20260508223507 | 69 | 97 | 0.0 | 5.0 | 0.00 | 0.00 | 0.00 | 46 | 1006.5 |
| 20260508223040 | 77 | 219 | 3.0 | 10.0 | 0.00 | 0.01 | 0.01 | 21 | 1009.4 |
| 20260508223029 | 69 | 207 | 1.0 | 7.0 | 0.00 | 0.00 | 0.00 | 43 | 1006.3 |
| 20260508222505 | 68 | 234 | 4.0 | 8.0 | 0.00 | 0.00 | 0.00 | 45 | 1006.3 |
| 20260508222009 | 68 | 212 | 1.0 | 8.0 | 0.00 | 0.00 | 0.00 | 50 | 1006.5 |
| 20260508221532 | 77 | 177 | 4.0 | 11.0 | 0.00 | 0.01 | 0.01 | 22 | 1009.4 |
| 20260508221526 | 68 | 101 | 0.0 | 3.0 | 0.00 | 0.00 | 0.00 | 53 | 1006.4 |
| 20260508221004 | 68 | 113 | 0.0 | 3.0 | 0.00 | 0.00 | 0.00 | 53 | 1006.4 |
| 20260508220503 | 67 | 248 | 0.0 | 3.0 | 0.00 | 0.00 | 0.00 | 53 | 1006.5 |
| 20260508220027 | 77 | 158 | 4.0 | 10.0 | 0.00 | 0.01 | 0.01 | 20 | 1009.6 |
| 20260508220011 | 67 | 95 | 1.0 | 3.0 | 0.00 | 0.00 | 0.00 | 53 | 1006.4 |
| 20260508215504 | 67 | 91 | 0.0 | 2.0 | 0.00 | 0.01 | 0.00 | 52 | 1006.5 |
| 20260508215004 | 67 | 157 | 0.0 | 3.0 | 0.00 | 0.01 | 0.00 | 45 | 1006.6 |
| 20260508214522 | 76 | 186 | 2.0 | 12.0 | 0.00 | 0.01 | 0.01 | 24 | 1009.8 |
| 20260508214517 | 67 | 200 | 1.0 | 3.0 | 0.00 | 0.01 | 0.00 | 42 | 1006.6 |
| 20260508214003 | 66 | 177 | 0.0 | 4.0 | 0.00 | 0.01 | 0.00 | 43 | 1006.7 |
| 20260508213503 | 66 | 212 | 1.0 | 4.0 | 0.00 | 0.01 | 0.00 | 42 | 1006.6 |
| 20260508213024 | 66 | 248 | 0.0 | 2.0 | 0.00 | 0.01 | 0.00 | 42 | 1006.6 |
| 20260508213017 | 75 | 132 | 7.0 | 12.0 | 0.00 | 0.01 | 0.01 | 24 | 1010.0 |
| 20260508212509 | 66 | 184 | 0.0 | 3.0 | 0.00 | 0.01 | 0.00 | 43 | 1006.6 |
| 20260508212007 | 66 | 266 | 1.0 | 3.0 | 0.00 | 0.01 | 0.00 | 42 | 1006.7 |
| 20260508211526 | 66 | 199 | 0.0 | 6.0 | 0.00 | 0.02 | 0.00 | 42 | 1006.7 |
| 20260508211516 | 75 | 98 | 8.0 | 12.0 | 0.00 | 0.01 | 0.01 | 25 | 1010.3 |
| 20260508211009 | 66 | 188 | 2.0 | 6.0 | 0.00 | 0.02 | 0.00 | 43 | 1006.7 |
| 20260508210507 | 66 | 299 | 0.0 | 4.0 | 0.00 | 0.02 | 0.00 | 42 | 1006.5 |
| 20260508210027 | 67 | 257 | 2.0 | 4.0 | 0.00 | 0.02 | 0.00 | 43 | 1006.5 |
| 20260508210008 | 74 | 134 | 3.0 | 11.0 | 0.00 | 0.01 | 0.01 | 25 | 1010.8 |
| 20260508205506 | 67 | 302 | 1.0 | 6.0 | 0.00 | 0.02 | 0.00 | 43 | 1006.8 |
| 20260508205003 | 67 | 225 | 2.0 | 8.0 | 0.00 | 0.02 | 0.00 | 42 | 1006.9 |
| 20260508204514 | 67 | 223 | 3.0 | 8.0 | 0.00 | 0.02 | 0.00 | 43 | 1006.9 |
| 20260508204505 | 74 | 134 | 6.0 | 10.0 | 0.00 | 0.01 | 0.01 | 25 | 1011.0 |
| 20260508204003 | 67 | 189 | 2.0 | 7.0 | 0.00 | 0.02 | 0.00 | 43 | 1007.0 |
| 20260508203507 | 67 | 204 | 2.0 | 7.0 | 0.00 | 0.02 | 0.00 | 41 | 1007.0 |
| 20260508203107 | 74 | 131 | 1.0 | 10.0 | 0.00 | 0.01 | 0.01 | 24 | 1011.2 |
| 20260508203020 | 67 | 244 | 2.0 | 6.0 | 0.00 | 0.02 | 0.00 | 42 | 1007.1 |
| 20260508202508 | 67 | 208 | 3.0 | 7.0 | 0.00 | 0.02 | 0.00 | 43 | 1007.1 |
| 20260508202007 | 67 | 229 | 2.0 | 7.0 | 0.00 | 0.02 | 0.00 | 43 | 1007.2 |
| 20260508201603 | 72 | 139 | 5.0 | 11.0 | 0.00 | 0.01 | 0.01 | 28 | 1011.3 |
| 20260508201526 | 67 | 162 | 0.0 | 5.0 | 0.00 | 0.02 | 0.00 | 43 | 1007.3 |
| 20260508201002 | 67 | 268 | 1.0 | 4.0 | 0.00 | 0.02 | 0.00 | 42 | 1007.3 |
| 20260508200503 | 67 | 175 | 1.0 | 4.0 | 0.00 | 0.02 | 0.00 | 43 | 1007.3 |
| 20260508200052 | 71 | 110 | 5.0 | 9.0 | 0.00 | 0.01 | 0.01 | 25 | 1011.8 |
| 20260508200018 | 67 | 108 | 1.0 | 3.0 | 0.00 | 0.02 | 0.00 | 43 | 1007.4 |
| 20260508195503 | 67 | 213 | 0.0 | 6.0 | 0.00 | 0.02 | 0.00 | 43 | 1007.5 |
| 20260508195004 | 67 | 82 | 2.0 | 6.0 | 0.00 | 0.02 | 0.00 | 42 | 1007.6 |
| 20260508194549 | 72 | 111 | 3.0 | 7.0 | 0.00 | 0.01 | 0.01 | 26 | 1012.0 |
| 20260508194510 | 67 | 213 | 3.0 | 6.0 | 0.00 | 0.02 | 0.00 | 42 | 1007.6 |
| 20260508194004 | 67 | 98 | 1.0 | 5.0 | 0.00 | 0.02 | 0.00 | 43 | 1007.6 |
| 20260508193505 | 67 | 71 | 0.0 | 4.0 | 0.00 | 0.02 | 0.00 | 44 | 1007.6 |
| 20260508193048 | 72 | 150 | 0.0 | 7.0 | 0.00 | 0.01 | 0.01 | 26 | 1012.3 |
| 20260508193020 | 67 | 197 | 0.0 | 4.0 | 0.00 | 0.02 | 0.00 | 44 | 1007.7 |
| 20260508192504 | 67 | 139 | 0.0 | 4.0 | 0.00 | 0.02 | 0.00 | 43 | 1007.8 |
| 20260508192009 | 67 | 267 | 1.0 | 4.0 | 0.00 | 0.02 | 0.00 | 44 | 1007.8 |
| 20260508191545 | 72 | 183 | 1.0 | 10.0 | 0.00 | 0.01 | 0.01 | 26 | 1012.1 |
| 20260508191522 | 67 | 182 | 0.0 | 4.0 | 0.00 | 0.02 | 0.00 | 45 | 1007.9 |
| 20260508191007 | 67 | 175 | 1.0 | 6.0 | 0.00 | 0.02 | 0.00 | 45 | 1007.9 |
| 20260508190508 | 67 | 101 | 0.0 | 6.0 | 0.00 | 0.02 | 0.00 | 44 | 1008.0 |
| 20260508190041 | 70 | 152 | 4.0 | 8.0 | 0.00 | 0.01 | 0.01 | 29 | 1012.1 |
| 20260508190007 | 67 | 98 | 1.0 | 5.0 | 0.00 | 0.02 | 0.00 | 45 | 1008.0 |
| 20260508185501 | 67 | 188 | 1.0 | 6.0 | 0.00 | 0.02 | 0.00 | 47 | 1008.1 |
| 20260508185004 | 67 | 148 | 1.0 | 6.0 | 0.00 | 0.02 | 0.00 | 45 | 1008.1 |
| 20260508184535 | 69 | 105 | 5.0 | 8.0 | 0.00 | 0.01 | 0.01 | 31 | 1012.3 |
| 20260508184509 | 66 | 201 | 1.0 | 6.0 | 0.00 | 0.02 | 0.00 | 48 | 1008.2 |
| 20260508184006 | 66 | 248 | 1.0 | 5.0 | 0.00 | 0.02 | 0.00 | 46 | 1008.2 |
| 20260508183503 | 66 | 177 | 2.0 | 5.0 | 0.00 | 0.02 | 0.00 | 47 | 1008.3 |
| 20260508183035 | 67 | 134 | 2.0 | 6.0 | 0.01 | 0.01 | 0.01 | 33 | 1012.9 |
| 20260508183012 | 66 | 185 | 1.0 | 6.0 | 0.00 | 0.02 | 0.00 | 47 | 1008.5 |
| 20260508182506 | 65 | 12 | 2.0 | 6.0 | 0.00 | 0.02 | 0.00 | 45 | 1008.5 |
| 20260508182003 | 65 | 236 | 2.0 | 4.0 | 0.00 | 0.02 | 0.00 | 48 | 1008.6 |
| 20260508181533 | 67 | 107 | 1.0 | 6.0 | 0.01 | 0.01 | 0.01 | 34 | 1013.3 |
| 20260508181527 | 65 | 97 | 2.0 | 4.0 | 0.00 | 0.02 | 0.00 | 53 | 1008.6 |
| 20260508181009 | 65 | 288 | 1.0 | 4.0 | 0.00 | 0.02 | 0.00 | 49 | 1008.6 |
| 20260508180509 | 65 | 173 | 1.0 | 7.0 | 0.00 | 0.02 | 0.00 | 52 | 1008.6 |
| 20260508180025 | 65 | 84 | 0.0 | 7.0 | 0.00 | 0.02 | 0.00 | 48 | 1008.8 |
| 20260508175508 | 65 | 163 | 3.0 | 6.0 | 0.00 | 0.02 | 0.00 | 51 | 1008.9 |
| 20260508175004 | 64 | 213 | 1.0 | 4.0 | 0.00 | 0.02 | 0.00 | 51 | 1008.9 |
| 20260508174521 | 67 | 141 | 2.0 | 8.0 | 0.01 | 0.01 | 0.01 | 31 | 1013.8 |
| 20260508174509 | 64 | 210 | 1.0 | 3.0 | 0.00 | 0.02 | 0.00 | 51 | 1009.0 |
| 20260508174004 | 64 | 96 | 0.0 | 6.0 | 0.00 | 0.02 | 0.00 | 49 | 1009.2 |
| 20260508173504 | 64 | 181 | 1.0 | 6.0 | 0.00 | 0.02 | 0.00 | 49 | 1009.2 |
| 20260508173022 | 67 | 114 | 5.0 | 8.0 | 0.00 | 0.00 | 0.00 | 27 | 1014.0 |
| 20260508172503 | 64 | 229 | 0.0 | 3.0 | 0.00 | 0.02 | 0.00 | 51 | 1009.4 |
| 20260508172005 | 64 | 264 | 1.0 | 7.0 | 0.00 | 0.02 | 0.00 | 50 | 1009.5 |
| 20260508171524 | 67 | 105 | 3.0 | 6.0 | 0.00 | 0.00 | 0.00 | 27 | 1014.6 |
| 20260508171004 | 63 | 83 | 0.0 | 4.0 | 0.00 | 0.02 | 0.00 | 48 | 1009.6 |
| 20260508170511 | 64 | 263 | 0.0 | 4.0 | 0.00 | 0.02 | 0.00 | 47 | 1009.8 |
| 20260508170022 | 64 | 69 | 1.0 | 4.0 | 0.00 | 0.02 | 0.00 | 45 | 1009.9 |
| 20260508170016 | 67 | 71 | 2.0 | 8.0 | 0.00 | 0.00 | 0.00 | 26 | 1014.3 |
| 20260508165507 | 63 | 194 | 0.0 | 4.0 | 0.00 | 0.02 | 0.00 | 44 | 1010.0 |
| 20260508165009 | 63 | 96 | 0.0 | 5.0 | 0.00 | 0.02 | 0.00 | 45 | 1010.0 |
| 20260508164525 | 63 | 235 | 1.0 | 6.0 | 0.00 | 0.02 | 0.00 | 44 | 1010.0 |
| 20260508164512 | 68 | 124 | 3.0 | 7.0 | 0.00 | 0.00 | 0.00 | 23 | 1014.5 |
| 20260508164008 | 63 | 84 | 1.0 | 6.0 | 0.00 | 0.02 | 0.00 | 44 | 1010.2 |
| 20260508163504 | 63 | 151 | 0.0 | 5.0 | 0.00 | 0.02 | 0.00 | 42 | 1010.3 |
| 20260508163015 | 63 | 103 | 0.0 | 4.0 | 0.00 | 0.02 | 0.00 | 42 | 1010.3 |
| 20260508163013 | 69 | 151 | 1.0 | 5.0 | 0.00 | 0.00 | 0.00 | 20 | 1014.5 |
| 20260508162506 | 63 | 212 | 1.0 | 6.0 | 0.00 | 0.02 | 0.00 | 40 | 1010.4 |
| 20260508162004 | 62 | 219 | 3.0 | 7.0 | 0.00 | 0.02 | 0.00 | 43 | 1010.5 |
| 20260508161523 | 62 | 213 | 2.0 | 7.0 | 0.00 | 0.02 | 0.00 | 44 | 1010.4 |
| 20260508161506 | 69 | 53 | 0.0 | 5.0 | 0.00 | 0.00 | 0.00 | 23 | 1014.3 |
| 20260508161004 | 62 | 249 | 1.0 | 5.0 | 0.00 | 0.02 | 0.00 | 44 | 1010.4 |
| 20260508160504 | 61 | 196 | 2.0 | 4.0 | 0.00 | 0.02 | 0.00 | 44 | 1010.5 |
| 20260508160027 | 61 | 92 | 1.0 | 4.0 | 0.00 | 0.02 | 0.00 | 47 | 1010.6 |
| 20260508160002 | 68 | 105 | 1.0 | 4.0 | 0.00 | 0.00 | 0.00 | 24 | 1014.4 |
| 20260508155506 | 61 | 94 | 1.0 | 5.0 | 0.00 | 0.02 | 0.00 | 47 | 1010.6 |
| 20260508155005 | 61 | 175 | 2.0 | 5.0 | 0.00 | 0.02 | 0.00 | 46 | 1010.6 |
| 20260508154604 | 67 | 109 | 1.0 | 2.0 | 0.00 | 0.00 | 0.00 | 23 | 1014.4 |
| 20260508154526 | 61 | 33 | 0.0 | 4.0 | 0.00 | 0.02 | 0.00 | 49 | 1010.7 |
| 20260508154007 | 61 | 196 | 0.0 | 4.0 | 0.00 | 0.02 | 0.00 | 47 | 1010.8 |
| 20260508153507 | 60 | 76 | 1.0 | 2.0 | 0.00 | 0.02 | 0.00 | 49 | 1010.8 |
| 20260508153055 | 65 | 155 | 0.0 | 2.0 | 0.00 | 0.00 | 0.00 | 24 | 1014.7 |
| 20260508153035 | 60 | 191 | 0.0 | 4.0 | 0.00 | 0.02 | 0.00 | 55 | 1010.8 |
| 20260508152503 | 59 | 218 | 1.0 | 4.0 | 0.00 | 0.02 | 0.00 | 55 | 1011.0 |
| 20260508152003 | 59 | 114 | 0.0 | 5.0 | 0.00 | 0.02 | 0.00 | 55 | 1011.0 |
| 20260508151547 | 64 | 110 | 3.0 | 7.0 | 0.00 | 0.00 | 0.00 | 24 | 1015.0 |
| 20260508151511 | 59 | 242 | 1.0 | 5.0 | 0.00 | 0.02 | 0.00 | 55 | 1011.0 |
| 20260508151004 | 59 | 201 | 1.0 | 4.0 | 0.00 | 0.02 | 0.00 | 57 | 1011.0 |
| 20260508150504 | 58 | 185 | 0.0 | 4.0 | 0.00 | 0.02 | 0.00 | 58 | 1011.0 |
| 20260508150042 | 63 | 128 | 2.0 | 5.0 | 0.00 | 0.00 | 0.00 | 24 | 1015.2 |
| 20260508150016 | 58 | 173 | 1.0 | 4.0 | 0.00 | 0.02 | 0.00 | 61 | 1011.1 |
| 20260508145507 | 57 | 171 | 0.0 | 4.0 | 0.00 | 0.02 | 0.00 | 63 | 1011.2 |
| 20260508145008 | 57 | 208 | 1.0 | 4.0 | 0.00 | 0.02 | 0.00 | 65 | 1011.2 |
| 20260508144537 | 62 | 79 | 3.0 | 6.0 | 0.00 | 0.00 | 0.00 | 27 | 1015.1 |
| 20260508144519 | 57 | 185 | 0.0 | 3.0 | 0.00 | 0.02 | 0.00 | 65 | 1011.2 |
| 20260508144011 | 56 | 174 | 1.0 | 3.0 | 0.00 | 0.02 | 0.00 | 65 | 1011.1 |
| 20260508143515 | 56 | 86 | 0.0 | 5.0 | 0.00 | 0.02 | 0.00 | 66 | 1011.2 |
| 20260508143035 | 61 | 112 | 4.0 | 6.0 | 0.00 | 0.00 | 0.00 | 28 | 1015.3 |
| 20260508143026 | 56 | 145 | 0.0 | 5.0 | 0.00 | 0.02 | 0.00 | 66 | 1011.3 |
| 20260508142507 | 56 | 171 | 1.0 | 5.0 | 0.00 | 0.02 | 0.00 | 68 | 1011.3 |
| 20260508142010 | 56 | 193 | 0.0 | 4.0 | 0.00 | 0.02 | 0.00 | 69 | 1011.1 |
| 20260508141604 | 61 | 77 | 0.0 | 4.0 | 0.00 | 0.00 | 0.00 | 30 | 1015.4 |
| 20260508141525 | 55 | 130 | 0.0 | 4.0 | 0.00 | 0.02 | 0.00 | 69 | 1011.2 |
| 20260508141004 | 55 | 107 | 0.0 | 3.0 | 0.00 | 0.02 | 0.00 | 71 | 1011.2 |
| 20260508140504 | 55 | 149 | 0.0 | 4.0 | 0.00 | 0.02 | 0.00 | 71 | 1011.2 |
| 20260508140032 | 61 | 160 | 3.0 | 5.0 | 0.00 | 0.00 | 0.00 | 31 | 1015.5 |
| 20260508140016 | 55 | 210 | 0.0 | 4.0 | 0.00 | 0.02 | 0.00 | 74 | 1011.3 |
| 20260508135505 | 54 | 131 | 0.0 | 2.0 | 0.00 | 0.02 | 0.00 | 76 | 1011.2 |
| 20260508135003 | 54 | 177 | 0.0 | 2.0 | 0.00 | 0.02 | 0.00 | 78 | 1011.2 |
| 20260508134542 | 62 | 123 | 0.0 | 0.0 | 0.00 | 0.00 | 0.00 | 39 | 1015.4 |
| 20260508134519 | 53 | 219 | 0.0 | 2.0 | 0.00 | 0.02 | 0.00 | 79 | 1011.1 |
| 20260508134006 | 53 | 158 | 0.0 | 2.0 | 0.00 | 0.02 | 0.00 | 81 | 1011.2 |
| 20260508133512 | 52 | 166 | 0.0 | 2.0 | 0.00 | 0.02 | 0.00 | 84 | 1011.1 |
| 20260508133027 | 61 | 123 | 0.0 | 0.0 | 0.00 | 0.00 | 0.00 | 39 | 1015.4 |
| 20260508133022 | 52 | 179 | 0.0 | 2.0 | 0.00 | 0.02 | 0.00 | 85 | 1011.0 |
| 20260508132507 | 51 | 213 | 0.0 | 2.0 | 0.00 | 0.02 | 0.00 | 86 | 1011.1 |
| 20260508132010 | 51 | 181 | 0.0 | 3.0 | 0.00 | 0.02 | 0.00 | 89 | 1011.1 |
| 20260508131525 | 50 | 167 | 0.0 | 3.0 | 0.00 | 0.02 | 0.00 | 89 | 1011.1 |
| 20260508131521 | 61 | 123 | 0.0 | 0.0 | 0.00 | 0.00 | 0.00 | 41 | 1015.2 |
| 20260508131010 | 49 | 170 | 0.0 | 2.0 | 0.00 | 0.02 | 0.00 | 90 | 1011.1 |
| 20260508130511 | 49 | 176 | 0.0 | 3.0 | 0.00 | 0.02 | 0.00 | 91 | 1011.2 |
| 20260508130016 | 59 | 123 | 0.0 | 0.0 | 0.00 | 0.00 | 0.00 | 41 | 1015.3 |
| 20260508130013 | 49 | 168 | 0.0 | 3.0 | 0.00 | 0.02 | 0.00 | 92 | 1011.2 |
| 20260508125504 | 48 | 124 | 0.0 | 3.0 | 0.00 | 0.02 | 0.00 | 92 | 1011.2 |
| 20260508125004 | 47 | 102 | 0.0 | 1.0 | 0.00 | 0.02 | 0.00 | 93 | 1011.3 |
| 20260508124517 | 47 | 100 | 0.0 | 1.0 | 0.00 | 0.02 | 0.00 | 93 | 1011.3 |
| 20260508124509 | 0 | 0.0 | 0.0 | 0.00 | 0.00 | 0.00 | 1015.3 | ||
| 20260508124006 | 46 | 100 | 0.0 | 1.0 | 0.00 | 0.02 | 0.00 | 93 | 1011.3 |
| 20260508123505 | 46 | 105 | 0.0 | 1.0 | 0.00 | 0.02 | 0.00 | 93 | 1011.4 |
| 20260508123024 | 45 | 179 | 0.0 | 1.0 | 0.00 | 0.02 | 0.00 | 93 | 1011.4 |
| 20260508123004 | 0 | 0.0 | 0.0 | 0.00 | 0.00 | 0.00 | 1015.7 | ||
| 20260508122508 | 45 | 179 | 0.0 | 1.0 | 0.00 | 0.02 | 0.00 | 94 | 1011.4 |
| 20260508122008 | 45 | 179 | 0.0 | 0.0 | 0.00 | 0.02 | 0.00 | 93 | 1011.4 |
| 20260508121602 | 0 | 0.0 | 0.0 | 0.00 | 0.00 | 0.00 | 1015.6 | ||
| 20260508121525 | 44 | 179 | 0.0 | 1.0 | 0.00 | 0.02 | 0.00 | 93 | 1011.3 |
| 20260508121009 | 44 | 179 | 0.0 | 1.0 | 0.00 | 0.02 | 0.00 | 93 | 1011.3 |
| 20260508120508 | 44 | 179 | 0.0 | 0.0 | 0.00 | 0.02 | 0.00 | 94 | 1011.6 |
| 20260508120053 | 0 | 0.0 | 0.0 | 0.00 | 0.00 | 0.00 | 1015.7 | ||
| 20260508120025 | 44 | 179 | 0.0 | 1.0 | 0.00 | 0.02 | 0.00 | 94 | 1011.5 |
| 20260508115509 | 43 | 179 | 0.0 | 1.0 | 0.00 | 0.02 | 0.00 | 94 | 1011.5 |
| 20260508115010 | 43 | 179 | 0.0 | 0.0 | 0.00 | 0.02 | 0.00 | 94 | 1011.5 |
| 20260508114547 | 0 | 0.0 | 0.0 | 0.00 | 0.00 | 0.00 | 1015.6 | ||
| 20260508114516 | 43 | 179 | 0.0 | 0.0 | 0.00 | 0.02 | 0.00 | 94 | 1011.5 |
| 20260508114005 | 43 | 179 | 0.0 | 1.0 | 0.00 | 0.02 | 0.00 | 94 | 1011.4 |
| 20260508113504 | 42 | 178 | 0.0 | 1.0 | 0.00 | 0.02 | 0.00 | 94 | 1011.3 |
| 20260508113055 | 0 | 0.0 | 0.0 | 0.00 | 0.00 | 0.00 | 1015.5 | ||
| 20260508113021 | 42 | 179 | 0.0 | 0.0 | 0.00 | 0.02 | 0.00 | 94 | 1011.2 |
| 20260508112505 | 42 | 179 | 0.0 | 0.0 | 0.00 | 0.02 | 0.00 | 94 | 1011.2 |
| 20260508112005 | 41 | 179 | 0.0 | 0.0 | 0.00 | 0.02 | 0.00 | 94 | 1011.1 |
| 20260508111537 | 0 | 113 | 0.0 | 0.0 | 0.00 | 0.00 | 0.00 | 1015.8 | |
| 20260508111525 | 41 | 179 | 0.0 | 0.0 | 0.00 | 0.02 | 0.00 | 93 | 1011.2 |
| 20260508111009 | 41 | 179 | 0.0 | 0.0 | 0.00 | 0.02 | 0.00 | 93 | 1011.1 |
| 20260508110509 | 41 | 178 | 0.0 | 2.0 | 0.00 | 0.02 | 0.00 | 93 | 1011.1 |
| 20260508110032 | 53 | 123 | 0.0 | 1.0 | 0.00 | 0.00 | 0.00 | 40 | 1016.0 |
| 20260508110027 | 41 | 179 | 0.0 | 2.0 | 0.00 | 0.02 | 0.00 | 93 | 1011.2 |
| 20260508105511 | 40 | 179 | 0.0 | 1.0 | 0.00 | 0.02 | 0.00 | 93 | 1011.0 |
| 20260508105013 | 40 | 182 | 0.0 | 1.0 | 0.00 | 0.02 | 0.00 | 93 | 1011.0 |
| 20260508104531 | 53 | 123 | 0.0 | 0.0 | 0.00 | 0.00 | 0.00 | 39 | 1016.0 |
| 20260508104526 | 40 | 182 | 0.0 | 1.0 | 0.00 | 0.02 | 0.00 | 93 | 1011.0 |
| 20260508104011 | 40 | 182 | 0.0 | 0.0 | 0.00 | 0.02 | 0.00 | 92 | 1011.1 |
| 20260508103510 | 40 | 182 | 0.0 | 0.0 | 0.00 | 0.02 | 0.00 | 93 | 1011.1 |
| 20260508103034 | 53 | 123 | 0.0 | 0.0 | 0.00 | 0.00 | 0.00 | 38 | 1015.8 |
| 20260508103019 | 40 | 182 | 0.0 | 0.0 | 0.00 | 0.02 | 0.00 | 93 | 1011.1 |
| 20260508102511 | 40 | 182 | 0.0 | 1.0 | 0.00 | 0.02 | 0.00 | 93 | 1011.1 |
| 20260508102008 | 40 | 182 | 0.0 | 1.0 | 0.00 | 0.02 | 0.00 | 93 | 1011.1 |
| 20260508101530 | 54 | 123 | 0.0 | 1.0 | 0.00 | 0.00 | 0.00 | 39 | 1015.4 |
| 20260508101520 | 40 | 298 | 0.0 | 1.0 | 0.00 | 0.02 | 0.00 | 93 | 1011.0 |
| 20260508101004 | 40 | 302 | 0.0 | 1.0 | 0.00 | 0.02 | 0.00 | 93 | 1010.9 |
| 20260508100503 | 40 | 302 | 0.0 | 1.0 | 0.00 | 0.02 | 0.00 | 92 | 1011.0 |
| 20260508100025 | 54 | 146 | 0.0 | 4.0 | 0.00 | 0.00 | 0.00 | 39 | 1015.2 |
| 20260508100005 | 40 | 302 | 0.0 | 1.0 | 0.00 | 0.02 | 0.00 | 92 | 1011.0 |
| 20260508095503 | 40 | 302 | 0.0 | 0.0 | 0.00 | 0.02 | 0.00 | 92 | 1011.1 |
| 20260508095002 | 40 | 302 | 0.0 | 0.0 | 0.00 | 0.02 | 0.00 | 92 | 1011.1 |
| 20260508094523 | 53 | 115 | 0.0 | 0.0 | 0.00 | 0.00 | 0.00 | 38 | 1015.3 |
| 20260508094509 | 41 | 302 | 0.0 | 0.0 | 0.00 | 0.02 | 0.00 | 92 | 1011.2 |
| 20260508094006 | 41 | 302 | 0.0 | 0.0 | 0.00 | 0.02 | 0.00 | 92 | 1011.3 |
| 20260508093504 | 41 | 302 | 0.0 | 0.0 | 0.00 | 0.02 | 0.00 | 92 | 1011.3 |
| 20260508093021 | 54 | 113 | 2.0 | 3.0 | 0.00 | 0.00 | 0.00 | 38 | 1015.0 |
| 20260508092504 | 41 | 302 | 0.0 | 0.0 | 0.00 | 0.02 | 0.00 | 92 | 1011.2 |
| 20260508092004 | 41 | 302 | 0.0 | 0.0 | 0.00 | 0.02 | 0.00 | 92 | 1011.3 |
| 20260508091619 | 54 | 121 | 3.0 | 4.0 | 0.00 | 0.00 | 0.00 | 38 | 1015.3 |
| 20260508091524 | 41 | 302 | 0.0 | 0.0 | 0.00 | 0.02 | 0.00 | 92 | 1011.4 |
| 20260508091003 | 41 | 302 | 0.0 | 0.0 | 0.00 | 0.02 | 0.00 | 91 | 1011.3 |
| 20260508090503 | 41 | 302 | 0.0 | 0.0 | 0.00 | 0.02 | 0.00 | 92 | 1011.3 |
| 20260508090024 | 54 | 119 | 0.0 | 0.0 | 0.00 | 0.00 | 0.00 | 37 | 1015.6 |
| 20260508090005 | 41 | 302 | 0.0 | 0.0 | 0.00 | 0.02 | 0.00 | 92 | 1011.3 |
| 20260508085502 | 41 | 302 | 0.0 | 0.0 | 0.00 | 0.02 | 0.00 | 92 | 1011.3 |
| 20260508085002 | 41 | 302 | 0.0 | 0.0 | 0.00 | 0.02 | 0.00 | 91 | 1011.4 |
| 20260508084513 | 54 | 119 | 0.0 | 4.0 | 0.00 | 0.00 | 0.00 | 38 | 1015.7 |
| 20260508084508 | 42 | 302 | 0.0 | 1.0 | 0.00 | 0.02 | 0.00 | 91 | 1011.3 |
| 20260508084003 | 42 | 302 | 0.0 | 1.0 | 0.00 | 0.02 | 0.00 | 91 | 1011.4 |
| 20260508083504 | 42 | 302 | 0.0 | 0.0 | 0.00 | 0.02 | 0.00 | 91 | 1011.4 |
| 20260508083012 | 42 | 302 | 0.0 | 0.0 | 0.00 | 0.02 | 0.00 | 91 | 1011.5 |
| 20260508083009 | 53 | 128 | 0.0 | 0.0 | 0.00 | 0.00 | 0.00 | 36 | 1016.1 |
| 20260508082504 | 42 | 302 | 0.0 | 0.0 | 0.00 | 0.02 | 0.00 | 91 | 1011.5 |
| 20260508082004 | 42 | 302 | 0.0 | 0.0 | 0.00 | 0.02 | 0.00 | 91 | 1011.5 |
| 20260508081523 | 42 | 302 | 0.0 | 0.0 | 0.00 | 0.02 | 0.00 | 91 | 1011.5 |
| 20260508081509 | 53 | 127 | 0.0 | 0.0 | 0.00 | 0.00 | 0.00 | 36 | 1016.5 |
| 20260508081004 | 43 | 302 | 0.0 | 0.0 | 0.00 | 0.02 | 0.00 | 91 | 1011.5 |
| 20260508080507 | 43 | 302 | 0.0 | 0.0 | 0.00 | 0.02 | 0.00 | 91 | 1011.5 |
| 20260508080017 | 43 | 302 | 0.0 | 0.0 | 0.00 | 0.02 | 0.00 | 91 | 1011.7 |
| 20260508080004 | 54 | 127 | 0.0 | 0.0 | 0.00 | 0.00 | 0.00 | 36 | 1016.2 |
| 20260508075504 | 43 | 302 | 0.0 | 0.0 | 0.00 | 0.02 | 0.00 | 91 | 1011.7 |
| 20260508075002 | 43 | 302 | 0.0 | 1.0 | 0.00 | 0.02 | 0.00 | 91 | 1011.7 |
| 20260508074504 | 54 | 127 | 0.0 | 0.0 | 0.00 | 0.00 | 0.00 | 33 | 1016.1 |
| 20260508074003 | 43 | 302 | 0.0 | 1.0 | 0.00 | 0.02 | 0.00 | 91 | 1011.7 |
| 20260508073502 | 44 | 302 | 0.0 | 2.0 | 0.00 | 0.02 | 0.00 | 91 | 1011.8 |
| 20260508073100 | 53 | 128 | 0.0 | 0.0 | 0.00 | 0.00 | 0.00 | 27 | 1016.0 |
| 20260508073008 | 44 | 302 | 0.0 | 2.0 | 0.00 | 0.02 | 0.00 | 91 | 1011.9 |
| 20260508072503 | 44 | 274 | 0.0 | 2.0 | 0.00 | 0.02 | 0.00 | 91 | 1011.8 |
| 20260508072003 | 44 | 274 | 0.0 | 2.0 | 0.00 | 0.02 | 0.00 | 90 | 1011.9 |
| 20260508071558 | 54 | 128 | 0.0 | 0.0 | 0.00 | 0.00 | 0.00 | 26 | 1016.0 |
| 20260508071522 | 44 | 302 | 0.0 | 3.0 | 0.00 | 0.02 | 0.00 | 90 | 1011.9 |
| 20260508071006 | 44 | 300 | 1.0 | 3.0 | 0.00 | 0.02 | 0.00 | 90 | 1011.8 |
| 20260508070504 | 44 | 280 | 0.0 | 2.0 | 0.00 | 0.02 | 0.00 | 90 | 1011.9 |
| 20260508070053 | 54 | 128 | 0.0 | 0.0 | 0.00 | 0.00 | 0.00 | 26 | 1016.1 |
| 20260508070019 | 44 | 296 | 0.0 | 1.0 | 0.00 | 0.02 | 0.00 | 90 | 1011.9 |
| 20260508065508 | 44 | 296 | 0.0 | 1.0 | 0.00 | 0.02 | 0.00 | 90 | 1011.9 |
| 20260508065006 | 44 | 296 | 0.0 | 1.0 | 0.00 | 0.02 | 0.00 | 90 | 1011.9 |
| 20260508064549 | 55 | 127 | 0.0 | 0.0 | 0.00 | 0.00 | 0.00 | 26 | 1016.3 |
| 20260508064519 | 44 | 298 | 0.0 | 1.0 | 0.00 | 0.02 | 0.00 | 90 | 1011.8 |
| 20260508064005 | 44 | 300 | 0.0 | 0.0 | 0.00 | 0.02 | 0.00 | 90 | 1011.7 |
| 20260508063504 | 44 | 300 | 0.0 | 1.0 | 0.00 | 0.02 | 0.00 | 90 | 1011.7 |
| 20260508063049 | 55 | 128 | 0.0 | 0.0 | 0.00 | 0.00 | 0.00 | 25 | 1016.3 |
| 20260508063006 | 44 | 300 | 0.0 | 1.0 | 0.00 | 0.02 | 0.00 | 90 | 1011.7 |
| 20260508062507 | 44 | 300 | 0.0 | 1.0 | 0.00 | 0.02 | 0.00 | 89 | 1011.6 |
| 20260508062003 | 44 | 306 | 0.0 | 1.0 | 0.00 | 0.02 | 0.00 | 89 | 1011.7 |
| 20260508061546 | 55 | 128 | 0.0 | 0.0 | 0.00 | 0.00 | 0.00 | 25 | 1016.2 |
| 20260508061515 | 45 | 306 | 0.0 | 1.0 | 0.00 | 0.02 | 0.00 | 89 | 1011.7 |